Regional Weather Roundup
Issued by NWS

Home | Current Version | Previous Version | Graphics & Text | Print | Product List | Glossary On
Versions: 1 2 3 4 5 6 7 8 9 10 11 12 13 14 15 16 17 18 19 20 21 22 23 24 25 26
000
ASUS45 KBOU 201510
RWRCO

WEATHER ROUNDUP FOR COLORADO
NATIONAL WEATHER SERVICE DENVER/BOULDER CO
900 AM MDT SUN MAY 20 2018

NOTE: "FAIR" INDICATES FEW OR NO CLOUDS BELOW 12000 FEET WITH NO
SIGNIFICANT WEATHER AND/OR OBSTRUCTIONS TO VISIBILITY.

COZ001>005-013-030-031-201600-
...NORTHWEST COLORADO...

CITY           SKY/WX    TMP DP  RH WIND       PRES   REMARKS
CRAIG          FAIR      49  43  80 CALM      30.16R
HAYDEN         FAIR      50  40  68 E7        30.18R
MEEKER         FAIR      49  38  65 NE5       30.15R
RANGELY        FAIR      55  40  57 E13       30.12S
RABBIT EARS PA FAIR      36  34  93 S6        30.31R
STEAMBOAT SPGS FAIR      42  41  97 CALM      30.18R
WALDEN         FAIR      41  34  75 CALM      30.24S
$$

COZ006>008-011-201600-
...WEST CENTRAL VALLEYS...

CITY           SKY/WX    TMP DP  RH WIND       PRES   REMARKS
GRAND JUNCTION FAIR      65  37  35 E15       30.05S
MONTROSE       FAIR      57  31  37 S3        30.11F
EAGLE          FAIR      47  36  65 CALM      30.23F
RIFLE          FAIR      55  39  54 MISG      30.12S
DELTA          FAIR      60  37  41 SE6       30.09S
NUCLA          FAIR      59  30  33 NW5       30.12R
$$

COZ017>023-064>068-201600-
...SOUTHWEST COLORADO...

CITY           SKY/WX    TMP DP  RH WIND       PRES   REMARKS
DURANGO          N/A     62  34  35 E13G21    30.16S
CORTEZ         FAIR      68  32  26 CALM      30.08S
PAGOSA SPRINGS FAIR      58  28  31 S5        30.24S
TELLURIDE      FAIR      55  27  33 S5        30.27R
WOLF CREEK PAS FAIR      37  28  70 S16       30.47R
$$

COZ009-010-012-014-032>034-037-058>063-201600-
...CENTRAL COLORADO...

CITY           SKY/WX    TMP DP  RH WIND       PRES   REMARKS
ASPEN          FAIR      51  32  48 N6        30.18F
BUENA VISTA    CLOUDY    44  37  78 SE5       30.30R
COPPER MTN     FAIR      41  28  60 S7        30.40R
BERTHOUD PASS  FAIR      32  21  64 W13       30.40R WCI  22
COTTONWOOD PAS FOG       43  41  93 E7        30.35R VSB 1/4
GUNNISON       FAIR      46  37  71 VRB3      30.26S
GRANBY         CLOUDY    36  36  99 CALM      30.27R FOG
KREMMLING      FAIR      50  37  62 CALM      30.24S
LEADVILLE      CLOUDY    38  33  82 E3        30.32S
MONARCH PASS   FAIR      37  30  75 MISG      30.51S
SALIDA         CLOUDY    46  39  76 SE8       30.37R
SUNLIGHT       FAIR      45  27  49 CALM      30.36R
WILKERSON PASS FOG       32  32 100 SW7       30.40S VSB 1/4 WCI  26
$$

COZ069>075-201600-
...SAN LUIS VALLEY/SANGRE DE CRISTO MOUNTAINS...

CITY           SKY/WX    TMP DP  RH WIND       PRES   REMARKS
ALAMOSA        FAIR      50  35  56 VRB5      30.26S
DEL NORTE      FAIR      51  31  47 E3        30.27F
LA VETA PASS   FAIR      45  37  76 SW8       30.46R
SAGUACHE       NOT AVBL
$$

COZ035-036-038>040-201600-
...NORTHERN COLORADO FRONT RANGE...

CITY           SKY/WX    TMP DP  RH WIND       PRES   REMARKS
DENVER INTL AP CLOUDY    44  41  89 SE5       30.26F
AURORA         CLOUDY    43  43 100 SE5       30.27F
FRONT RANGE AP CLOUDY    45  43  93 E8        30.28S
ERIE MUNI ARPT CLOUDY    44  42  94 SE7       30.33S FOG
BOULDER MUN AP LGT RAIN  43  43 100 NE5       30.27S
CENTENNIAL     CLOUDY    45  41  86 CALM      30.26F
BROOMFIELD     DRIZZLE   43  43 100 E6        30.28S
FORT COLLINS   CLOUDY    44  42  93 SE7       30.28F
LONGMONT       CLOUDY    46  44  92 SE6       30.29F
$$

COZ041-046-047-076>085-087-088-201600-
...PIKES PEAK/PALMER DIVIDE AND SOUTHERN FOOTHILLS...

CITY           SKY/WX    TMP DP  RH WIND       PRES   REMARKS
COLO. SPRINGS  CLOUDY    43  42  97 S9        30.28S FOG
A. F. ACADEMY  LGT RAIN  43  43  99 S10       30.27S
SCHRIEVER AFB  NOT AVBL
CHEYENNE MTN   LGT RAIN  39  39 100 SE9       30.23S VSB 1/4
ELLICOTT         N/A    N/A N/A N/A SW9       30.26F
FALCON         CLOUDY    43  41  93 S6        30.29S FOG
FORT CARSON    CLOUDY    44  43  99 S9        30.26S FOG
LIMON          CLOUDY    45  38  76 CALM      30.27F
MONUMENT HILL  CLOUDY    41  37  87 S7        30.29S
CANON CITY     CLOUDY    46  45  93 SE8       30.27F FOG
WALSENBURG     CLOUDY    46  45  93 E7        30.27S
TRINIDAD       CLOUDY    45  43  93 E5        30.27S
$$

COZ042>045-048>051-090-091-201600-
...NORTHEAST COLORADO...

CITY           SKY/WX    TMP DP  RH WIND       PRES   REMARKS
GREELEY ARPT   CLOUDY    46  40  79 SE3       30.28F
AKRON          PTSUNNY   46  39  76 NW7       30.26S
BURLINGTON     FAIR      52  40  63 N10       30.24R
WRAY           FAIR      52  41  66 N8        30.25R
YUMA           FAIR      46  39  76 NW10      30.25S
STERLING       FAIR      50  39  66 N3        30.26S
HOLYOKE        FAIR      54  43  66 N8        30.25S
FORT MORGAN    PTSUNNY   47  36  67 CALM      30.28S
$$

COZ086-089-092>099-201600-
...SOUTHEAST COLORADO...

CITY           SKY/WX    TMP DP  RH WIND       PRES   REMARKS
PUEBLO         CLOUDY    48  42  80 SE6       30.27F
LA JUNTA       CLOUDY    50  41  71 NE6       30.27S
LAMAR          CLOUDY    51  41  68 NW9       30.24R
SPRINGFIELD      N/A     47  42  83 N17       30.24R
$$




USA.gov is the U.S. government's official web portal to all federal, state and local government web resources and services.